Overview Statistics Trail Chart Weather Telemetry Raw packets
 

This is the latest recevied weather packets stored in our database for station/object LU3GHF-13. If no packets are shown the sender has not sent any weather packets the latest 10 day(s).

<< 6 7 8 9 10 11 12 >>
Time Temp. Humidity Pressure Rain* Wind** Luminosity Snow
1788520895 17.78° C 67% 1012.4 hPa - - - -
1788520291 17.78° C 67% 1012.1 hPa - - - -
1788519669 18.33° C 67% 1012 hPa - - - -
1788519061 17.78° C 67% 1011.8 hPa - - - -
1788518409 17.78° C 68% 1011.9 hPa - - - -
1788517774 18.33° C 67% 1011.2 hPa - - - -
1788517170 18.33° C 66% 1011.1 hPa - - - -
1788516563 18.33° C 66% 1011.1 hPa - - - -
1788515938 18.33° C 67% 1011.2 hPa - - - -
1788515297 18.33° C 65% 1011 hPa - - - -
1788514677 18.89° C 65% 1010.8 hPa - - - -
1788514029 18.33° C 65% 1010.6 hPa - - - -
1788513383 18.33° C 65% 1010.5 hPa - - - -
1788512728 18.89° C 64% 1010.1 hPa - - - -
1788512080 18.89° C 64% 1009.9 hPa - - - -
1788511445 18.33° C 65% 1009.9 hPa - - - -
1788510800 18.89° C 64% 1009.7 hPa - - - -
1788510163 18.33° C 65% 1009.5 hPa - - - -
1788509507 18.89° C 64% 1009.4 hPa - - - -
1788508878 19.44° C 64% 1009.6 hPa - - - -
1788508269 19.44° C 66% 1009.3 hPa - - - -
1788507653 19.44° C 67% 1009.3 hPa - - - -
1788507045 19.44° C 67% 1009.7 hPa - - - -
1788506413 19.44° C 67% 1009.7 hPa - - - -
1788505775 19.44° C 68% 1009.8 hPa - - - -

* Rain since midnight (hover to see other rain measurements)
** Current wind speed in m/s (hover to see current wind gust speed)